Location: Baarleveld
(51.0452°N, 3.6062°E)
Time: 09:58:26
(UTC+00:00)

SL-16 R/B - Pass Details

Date: 06 September 2025
Orbit: 840 x 847 km, 71.0° (Epoch: 12 December)

Event Time Altitude Azimuth Distance (km) Brightness Sun altitude
Rises 19:42:56 0° 215° (SW) 3,385 5.4 -13.2°
Reaches altitude 10° 19:45:23 10° 217° (SW) 2,455 4.7 -13.5°
Maximum altitude 19:51:01 72° 302° (WNW) 890 2.5 -14.3°
Drops below altitude 10° 19:56:42 10° 27° (NNE) 2,475 4.7 -15.1°
Sets 19:59:10 0° 30° (NNE) 3,415 5.4 -15.4°
